This is the latest recevied weather packets stored in our database for station/object IW1PPB-3. If no packets are shown the sender has not sent any weather packets the latest 10 day(s).
| Time | Temp. | Humidity | Pressure | Rain* | Wind** | Luminosity | Snow |
|---|---|---|---|---|---|---|---|
| 1777538608 | 19.44° C | 55% | 1019.2 hPa | 0 mm | - | - | - |
| 1777538011 | 19.44° C | 54% | 1019 hPa | 0 mm | - | - | - |
| 1777537426 | 20° C | 53% | 1018.9 hPa | 0 mm | - | - | - |
| 1777536809 | 20° C | 54% | 1018.7 hPa | 0 mm | - | - | - |
| 1777536226 | 19.44° C | 56% | 1018.6 hPa | 0 mm | - | - | - |
| 1777535613 | 20° C | 56% | 1018.7 hPa | 0 mm | - | - | - |
| 1777535018 | 20° C | 55% | 1018.5 hPa | 0 mm | - | - | - |
| 1777534426 | 19.44° C | 57% | 1018.3 hPa | 0 mm | - | - | - |
| 1777533804 | 20° C | 56% | 1018.4 hPa | 0 mm | - | - | - |
| 1777533211 | 20° C | 58% | 1018.1 hPa | 0 mm | - | - | - |
| 1777532621 | 18.89° C | 60% | 1018 hPa | 0 mm | - | - | - |
| 1777532007 | 18.89° C | 60% | 1017.9 hPa | 0 mm | - | - | - |
| 1777531409 | 20° C | 58% | 1017.8 hPa | 0 mm | - | - | - |
| 1777530807 | 20° C | 57% | 1017.9 hPa | 0 mm | - | - | - |
| 1777530222 | 19.44° C | 57% | 1017.8 hPa | 0 mm | - | - | - |
| 1777529610 | 19.44° C | 57% | 1017.9 hPa | 0 mm | - | - | - |
| 1777529010 | 18.89° C | 57% | 1017.7 hPa | 0 mm | - | - | - |
| 1777528407 | 18.89° C | 59% | 1017.8 hPa | 0 mm | - | - | - |
| 1777527812 | 18.89° C | 60% | 1017.6 hPa | 0 mm | - | - | - |
| 1777527226 | 18.89° C | 60% | 1017.5 hPa | 0 mm | - | - | - |
| 1777526607 | 18.89° C | 59% | 1017.3 hPa | 0 mm | - | - | - |
| 1777526026 | 18.89° C | 60% | 1017.3 hPa | 0 mm | - | - | - |
| 1777525414 | 18.89° C | 61% | 1017.3 hPa | 0 mm | - | - | - |
| 1777524804 | 18.89° C | 62% | 1017.3 hPa | 0 mm | - | - | - |
| 1777524215 | 18.89° C | 62% | 1017.1 hPa | 0 mm | - | - | - |
* Rain latest hour (hover to see other rain measurements)
** Current wind speed in m/s (hover to see current wind gust speed)